TimePST,TemperatureF,Dew PointF,Humidity,Sea Level PressureIn,VisibilityMPH,Wind Direction,Wind SpeedMPH,Gust SpeedMPH,PrecipitationIn,Events,Conditions,WindDirDegrees,DateUTC
12:55 AM,42.1,24.1,49,30.12,10.0,ENE,9.2,-,N/A,,Clear,60,2013-01-13 08:55:00
1:55 AM,43.0,23.0,45,30.14,10.0,ENE,6.9,-,N/A,,Clear,60,2013-01-13 09:55:00
2:55 AM,37.9,25.0,60,30.15,10.0,Calm,Calm,-,N/A,,Clear,0,2013-01-13 10:55:00
3:55 AM,39.0,23.0,53,30.14,10.0,NE,4.6,-,N/A,,Clear,50,2013-01-13 11:55:00
4:55 AM,37.9,21.9,53,30.15,10.0,NE,8.1,-,N/A,,Clear,50,2013-01-13 12:55:00
5:55 AM,39.0,19.9,46,30.16,10.0,ENE,8.1,-,N/A,,Clear,60,2013-01-13 13:55:00
6:55 AM,39.9,19.0,43,30.17,10.0,NE,9.2,-,N/A,,Clear,40,2013-01-13 14:55:00
7:55 AM,42.1,19.0,40,30.21,10.0,Calm,Calm,-,N/A,,Clear,0,2013-01-13 15:55:00
8:55 AM,48.0,19.0,32,30.22,10.0,NE,5.8,-,N/A,,Clear,50,2013-01-13 16:55:00
9:55 AM,53.1,17.1,24,30.22,10.0,Variable,3.5,-,N/A,,Clear,0,2013-01-13 17:55:00
10:55 AM,55.0,12.9,19,30.18,10.0,Calm,Calm,-,N/A,,Clear,0,2013-01-13 18:55:00
11:55 AM,55.9,15.1,20,30.14,10.0,Calm,Calm,-,N/A,,Clear,0,2013-01-13 19:55:00
12:55 PM,57.0,18.0,22,30.11,10.0,WSW,11.5,16.1,N/A,,Clear,240,2013-01-13 20:55:00
1:55 PM,55.9,21.0,26,30.11,10.0,WSW,11.5,-,N/A,,Clear,240,2013-01-13 21:55:00
2:55 PM,55.9,24.1,29,30.10,10.0,West,12.7,-,N/A,,Clear,270,2013-01-13 22:55:00
3:55 PM,53.1,27.0,37,30.11,10.0,West,9.2,-,N/A,,Clear,260,2013-01-13 23:55:00
4:55 PM,51.1,30.0,44,30.09,10.0,West,9.2,-,N/A,,Clear,270,2013-01-14 00:55:00
5:55 PM,50.0,30.9,48,30.09,10.0,SW,4.6,-,N/A,,Clear,230,2013-01-14 01:55:00
6:55 PM,44.1,30.9,60,30.11,10.0,ENE,4.6,-,N/A,,Clear,60,2013-01-14 02:55:00
7:55 PM,45.0,30.9,58,30.11,10.0,NE,10.4,-,N/A,,Clear,50,2013-01-14 03:55:00
8:55 PM,45.0,28.0,52,30.13,10.0,ENE,15.0,-,N/A,,Clear,60,2013-01-14 04:55:00
9:55 PM,43.0,24.1,47,30.15,10.0,East,11.5,-,N/A,,Clear,100,2013-01-14 05:55:00
10:21 PM,46.4,15.8,29,30.12,10.0,NE,19.6,-,N/A,,Clear,40,2013-01-14 06:21:00
10:55 PM,46.9,12.0,24,30.17,10.0,ENE,17.3,-,N/A,,Clear,60,2013-01-14 06:55:00
11:55 PM,46.0,8.1,21,30.19,10.0,ENE,19.6,34.5,N/A,,Clear,70,2013-01-14 07:55:00